Weather History for Beaufort MCAS, SC

Change the Weather History Date:

Thursday, January 24, 2013

  Actual Average Record
Temperature  
Mean Temperature 55 °F -  
Max Temperature 69 °F 60 °F 81 °F (1949)
Min Temperature 39 °F 40 °F 19 °F (2003)
Degree Days  
Heating Degree Days 10    
Growing Degree Days 5 (Base 50)    
Moisture  
Dew Point 35 °F    
Average Humidity 52    
Maximum Humidity 74    
Minimum Humidity 24    
Precipitation  
Precipitation 0.00 in - - ()
Sea Level Pressure  
Sea Level Pressure 30.24 in    
Wind  
Wind Speed 12 mph (WNW)    
Max Wind Speed 20 mph    
Max Gust Speed 28 mph    
Visibility 10 miles    
Events      
Averages and records for this station are not official NWS values.
T = Trace of Precipitation, MM = Missing Value Source: NWS Daily Summary

Daily Weather History Graph

Daily Weather History Graph

Search for Another Location

Airport:

Trip Planner

Search our weather history database for the weather conditions in past years. The results will help you decide how hot, cold, wet, or windy it might be!

Date:

Astronomy

Jan. 24, 2013 Rise Set
Actual Time 7:21 AM EST 5:48 PM EST
Civil Twilight 6:55 AM EST 6:14 PM EST
Nautical Twilight 6:25 AM EST 6:44 PM EST
Astronomical Twilight 5:56 AM EST 7:13 PM EST
Moon 3:51 PM EST (1/24) 5:16 AM EST (1/24)
Length of Visible Light 11h 19m
Length of Day
10h 27m
Waxing Gibbous, 94% of the Moon is Illuminated
Jan 24
Waxing Gibbous
Jan 26
Full
Feb 3
Last Quarter
Feb 10
New
Feb 17
First Quarter

Hourly Weather History & Observations

Time (EST) Temp. Windchill Dew Point Humidity Pressure Visibility Wind Dir Wind Speed Gust Speed Precip Events Conditions
12:56 AM 45.0 °F 40.6 °F 35.1 °F 68% 30.21 in 10.0 mi WSW 8.1 mph - N/A   Clear
1:56 AM 46.9 °F - 36.0 °F 66% 30.21 in 8.0 mi WSW 9.2 mph - N/A   Scattered Clouds
2:56 AM 43.0 °F 38.2 °F 35.1 °F 74% 30.19 in 7.0 mi WSW 8.1 mph - N/A   Clear
3:56 AM 46.9 °F - 37.0 °F 68% 30.16 in 8.0 mi WSW 11.5 mph - N/A   Clear
4:56 AM 46.9 °F - 37.9 °F 71% 30.14 in 9.0 mi WSW 10.4 mph - N/A   Clear
5:56 AM 48.9 °F - 39.9 °F 71% 30.15 in 10.0 mi West 10.4 mph - N/A   Clear
6:56 AM 52.0 °F - 42.1 °F 69% 30.16 in 10.0 mi West 11.5 mph - N/A   Clear
7:56 AM 52.0 °F - 42.1 °F 69% 30.17 in 10.0 mi West 12.7 mph - N/A   Scattered Clouds
8:56 AM 55.0 °F - 43.0 °F 64% 30.19 in 10.0 mi West 15.0 mph - N/A   Scattered Clouds
9:56 AM 59.0 °F - 44.1 °F 58% 30.20 in 10.0 mi West 13.8 mph 20.7 mph N/A   Scattered Clouds
10:56 AM 62.1 °F - 44.1 °F 52% 30.21 in 10.0 mi WNW 13.8 mph 21.9 mph N/A   Scattered Clouds
11:56 AM 66.0 °F - 42.1 °F 42% 30.19 in 10.0 mi NW 18.4 mph 26.5 mph N/A   Scattered Clouds
12:56 PM 66.9 °F - 39.0 °F 36% 30.16 in 10.0 mi WNW 15.0 mph 27.6 mph N/A   Scattered Clouds
1:56 PM 68.0 °F - 36.0 °F 31% 30.15 in 10.0 mi NW 15.0 mph 21.9 mph N/A   Scattered Clouds
2:56 PM 69.1 °F - 30.9 °F 24% 30.16 in 10.0 mi NNW 16.1 mph - N/A   Scattered Clouds
3:56 PM 66.9 °F - 28.9 °F 24% 30.19 in 10.0 mi NNW 15.0 mph 23.0 mph N/A   Mostly Cloudy
4:56 PM 66.0 °F - 28.9 °F 25% 30.21 in 10.0 mi NW 4.6 mph - N/A   Clear
5:56 PM 52.0 °F - 39.0 °F 61% 30.27 in 10.0 mi ESE 19.6 mph 27.6 mph N/A   Clear
6:03 PM 51.8 °F - 37.4 °F 58% 30.28 in 10.0 mi East 15.0 mph 27.6 mph N/A   Clear
6:56 PM 50.0 °F - 35.1 °F 57% 30.32 in 10.0 mi East 12.7 mph 23.0 mph N/A   Clear
7:56 PM 48.9 °F - 28.0 °F 44% 30.35 in 10.0 mi East 15.0 mph 24.2 mph N/A   Clear
8:56 PM 46.9 °F - 26.1 °F 44% 30.38 in 10.0 mi East 11.5 mph 20.7 mph N/A   Clear
9:56 PM 44.1 °F 38.6 °F 23.0 °F 43% 30.41 in 10.0 mi ENE 10.4 mph 21.9 mph N/A   Clear
10:56 PM 41.0 °F 33.9 °F 19.9 °F 43% 30.43 in 10.0 mi ENE 12.7 mph 21.9 mph N/A   Clear
11:56 PM 39.0 °F 31.0 °F 21.9 °F 50% 30.44 in 10.0 mi ENE 13.8 mph 24.2 mph N/A   Clear